When you browse on this site, cookies collect data to enhance your experience and personalize the content and advertising you see.
Visit our Privacy Policy to learn more. By continuing to use the site, you agree to this use of cookies and data.

Hourly Weather Natitingou

Today, 2 July, Thursday

Time Temperature Precipitation Wind Pressure Humidity
00:00 +25°C° 0 mm 1 mps 717 mmHg 88%
01:00 +24°C° 0 mm 1 mps 717 mmHg 90%
02:00 +24°C° 0 mm 1 mps 717 mmHg 92%
03:00 +24°C° 0 mm 1 mps 716 mmHg 94%
04:00 +23°C° 0 mm 1 mps 717 mmHg 95%
05:00 +23°C° 0 mm 1 mps 717 mmHg 96%
06:00 +23°C° 0 mm 1 mps 717 mmHg 96%
07:00 +25°C° 0 mm 2 mps 717 mmHg 90%
08:00 +26°C° 0 mm 2 mps 718 mmHg 84%
09:00 +28°C° 0 mm 2 mps 718 mmHg 78%
10:00 +30°C° 0.1 mm 2 mps 718 mmHg 70%
11:00 +32°C° 0.1 mm 2 mps 718 mmHg 62%
12:00 +34°C° 0.1 mm 2 mps 718 mmHg 54%
13:00 +34°C° 0.9 mm 2 mps 717 mmHg 55%
14:00 +34°C° 0.9 mm 2 mps 716 mmHg 56%
15:00 +34°C° 0.9 mm 2 mps 715 mmHg 56%
16:00 +32°C° 0.5 mm 2 mps 715 mmHg 63%
17:00 +30°C° 0.5 mm 2 mps 715 mmHg 69%
18:00 +29°C° 0.5 mm 2 mps 715 mmHg 75%
19:00 +28°C° 1.1 mm 1 mps 715 mmHg 79%
20:00 +27°C° 1.1 mm 1 mps 716 mmHg 84%
21:00 +26°C° 1.1 mm 1 mps 716 mmHg 88%
22:00 +25°C° 0.2 mm 1 mps 716 mmHg 89%
23:00 +25°C° 0.2 mm 1 mps 717 mmHg 91%

Tomorrow, 3 July, Friday

Time Temperature Precipitation Wind Pressure Humidity
00:00 +25°C° 0.2 mm 1 mps 717 mmHg 92%
01:00 +25°C° 0.7 mm 1 mps 716 mmHg 93%
02:00 +25°C° 0.7 mm 1 mps 716 mmHg 93%
03:00 +24°C° 0.7 mm 2 mps 716 mmHg 94%
04:00 +24°C° 0 mm 2 mps 716 mmHg 94%
05:00 +24°C° 0 mm 2 mps 716 mmHg 95%
06:00 +24°C° 0 mm 3 mps 716 mmHg 95%
07:00 +25°C° 0 mm 3 mps 716 mmHg 90%
08:00 +26°C° 0 mm 4 mps 717 mmHg 85%
09:00 +28°C° 0 mm 5 mps 717 mmHg 81%
10:00 +29°C° 0 mm 4 mps 717 mmHg 75%
11:00 +32°C° 0 mm 4 mps 717 mmHg 70%
12:00 +33°C° 0 mm 3 mps 717 mmHg 65%
13:00 +33°C° 0 mm 3 mps 716 mmHg 64%
14:00 +33°C° 0 mm 3 mps 716 mmHg 64%
15:00 +33°C° 0 mm 3 mps 715 mmHg 64%
16:00 +30°C° 3 mm 3 mps 715 mmHg 72%
17:00 +28°C° 3 mm 3 mps 715 mmHg 80%
18:00 +27°C° 3 mm 4 mps 715 mmHg 89%
19:00 +26°C° 1.5 mm 3 mps 715 mmHg 90%
20:00 +25°C° 1.5 mm 2 mps 716 mmHg 90%
21:00 +25°C° 1.5 mm 2 mps 716 mmHg 91%
22:00 +25°C° 0.1 mm 1 mps 716 mmHg 92%
23:00 +24°C° 0.1 mm 1 mps 716 mmHg 93%

Day after tomorrow, 4 July, Saturday

Time Temperature Precipitation Wind Pressure Humidity
00:00 +24°C° 0.1 mm 1 mps 716 mmHg 94%
01:00 +24°C° 0.3 mm 2 mps 716 mmHg 94%
02:00 +24°C° 0.3 mm 2 mps 716 mmHg 94%
03:00 +24°C° 0.3 mm 3 mps 716 mmHg 95%
04:00 +24°C° 0 mm 3 mps 716 mmHg 94%
05:00 +23°C° 0 mm 4 mps 716 mmHg 94%
06:00 +23°C° 0 mm 5 mps 716 mmHg 94%
07:00 +25°C° 0 mm 5 mps 717 mmHg 91%
08:00 +25°C° 0 mm 5 mps 717 mmHg 87%
09:00 +26°C° 0 mm 5 mps 718 mmHg 84%
10:00 +27°C° 0.3 mm 5 mps 718 mmHg 80%
11:00 +28°C° 0.3 mm 5 mps 718 mmHg 76%
12:00 +29°C° 0.3 mm 4 mps 718 mmHg 72%
13:00 +29°C° 0.9 mm 4 mps 718 mmHg 72%
14:00 +29°C° 0.9 mm 3 mps 717 mmHg 72%
15:00 +29°C° 0.9 mm 3 mps 716 mmHg 72%
16:00 +29°C° 0 mm 2 mps 716 mmHg 75%
17:00 +28°C° 0 mm 2 mps 716 mmHg 78%
18:00 +27°C° 0 mm 2 mps 716 mmHg 80%
19:00 +27°C° 0 mm 2 mps 716 mmHg 83%
20:00 +26°C° 0 mm 2 mps 716 mmHg 85%
21:00 +25°C° 0 mm 2 mps 716 mmHg 88%
22:00 +25°C° 0 mm 2 mps 717 mmHg 90%
23:00 +25°C° 0 mm 2 mps 717 mmHg 92%

5 July, Sunday

Time Temperature Precipitation Wind Pressure Humidity
00:00 +24°C° 0 mm 2 mps 717 mmHg 93%
01:00 +24°C° 0.1 mm 2 mps 717 mmHg 92%
02:00 +24°C° 0.1 mm 2 mps 717 mmHg 90%
03:00 +24°C° 0.1 mm 3 mps 717 mmHg 89%
04:00 +24°C° 0 mm 3 mps 717 mmHg 89%
05:00 +24°C° 0 mm 3 mps 717 mmHg 90%
06:00 +24°C° 0 mm 2 mps 717 mmHg 91%
07:00 +25°C° 0 mm 3 mps 718 mmHg 87%
08:00 +26°C° 0 mm 3 mps 718 mmHg 82%
09:00 +27°C° 0 mm 4 mps 718 mmHg 78%
10:00 +28°C° 0 mm 3 mps 718 mmHg 72%
11:00 +30°C° 0 mm 3 mps 718 mmHg 66%
12:00 +31°C° 0 mm 3 mps 718 mmHg 59%
13:00 +31°C° 0 mm 3 mps 717 mmHg 60%
14:00 +31°C° 0 mm 2 mps 717 mmHg 60%
15:00 +31°C° 0 mm 2 mps 716 mmHg 60%
16:00 +30°C° 0.3 mm 2 mps 716 mmHg 65%
17:00 +29°C° 0.3 mm 2 mps 716 mmHg 70%
18:00 +28°C° 0.3 mm 1 mps 716 mmHg 75%
19:00 +27°C° 0.2 mm 1 mps 716 mmHg 77%
20:00 +26°C° 0.2 mm 1 mps 717 mmHg 79%
21:00 +25°C° 0.2 mm 2 mps 717 mmHg 81%
22:00 +25°C° 1.6 mm 1 mps 717 mmHg 84%
23:00 +25°C° 1.6 mm 1 mps 717 mmHg 87%

6 July, Monday

Time Temperature Precipitation Wind Pressure Humidity
00:00 +25°C° 1.6 mm 1 mps 717 mmHg 90%
01:00 +24°C° 1.1 mm 1 mps 717 mmHg 90%
02:00 +24°C° 1.1 mm 1 mps 717 mmHg 90%
03:00 +24°C° 1.1 mm 1 mps 716 mmHg 89%
04:00 +24°C° 0.6 mm 2 mps 717 mmHg 91%
05:00 +24°C° 0.6 mm 2 mps 717 mmHg 93%
06:00 +24°C° 0.6 mm 3 mps 717 mmHg 94%
07:00 +24°C° 0 mm 3 mps 718 mmHg 91%
08:00 +25°C° 0 mm 3 mps 718 mmHg 88%
09:00 +26°C° 0 mm 4 mps 718 mmHg 85%
10:00 +26°C° 0 mm 4 mps 718 mmHg 83%
11:00 +27°C° 0 mm 4 mps 718 mmHg 81%
12:00 +27°C° 0 mm 4 mps 717 mmHg 80%
13:00 +28°C° 0 mm 4 mps 717 mmHg 77%
14:00 +28°C° 0 mm 4 mps 716 mmHg 74%
15:00 +29°C° 0 mm 4 mps 716 mmHg 71%
16:00 +28°C° 0 mm 3 mps 716 mmHg 75%
17:00 +27°C° 0 mm 3 mps 716 mmHg 79%
18:00 +26°C° 0 mm 2 mps 716 mmHg 83%
19:00 +25°C° 0 mm 2 mps 716 mmHg 86%
20:00 +25°C° 0 mm 2 mps 716 mmHg 90%
21:00 +24°C° 0 mm 1 mps 717 mmHg 93%
22:00 +24°C° 0 mm 1 mps 717 mmHg 93%
23:00 +24°C° 0 mm 1 mps 717 mmHg 93%

7 July, Tuesday

Time Temperature Precipitation Wind Pressure Humidity
00:00 +23°C° 0 mm 1 mps 717 mmHg 93%
01:00 +23°C° 0 mm 2 mps 717 mmHg 94%
02:00 +23°C° 0 mm 2 mps 716 mmHg 95%
03:00 +23°C° 0 mm 2 mps 716 mmHg 95%
04:00 +23°C° 0 mm 2 mps 716 mmHg 95%
05:00 +22°C° 0 mm 3 mps 716 mmHg 95%
06:00 +22°C° 0 mm 3 mps 717 mmHg 95%
07:00 +25°C° 0 mm 3 mps 717 mmHg 88%
08:00 +26°C° 0 mm 4 mps 717 mmHg 82%
09:00 +28°C° 0 mm 5 mps 718 mmHg 75%
10:00 +29°C° 0 mm 4 mps 717 mmHg 70%
11:00 +30°C° 0 mm 4 mps 717 mmHg 66%
12:00 +33°C° 0 mm 3 mps 717 mmHg 61%
13:00 +33°C° 0 mm 3 mps 716 mmHg 60%
14:00 +33°C° 0 mm 3 mps 716 mmHg 60%
15:00 +32°C° 0 mm 2 mps 715 mmHg 59%
16:00 +31°C° 0.3 mm 2 mps 715 mmHg 66%
17:00 +29°C° 0.3 mm 2 mps 715 mmHg 73%
18:00 +28°C° 0.3 mm 1 mps 715 mmHg 80%
19:00 +27°C° 0 mm 2 mps 716 mmHg 82%
20:00 +26°C° 0 mm 2 mps 716 mmHg 85%
21:00 +26°C° 0 mm 2 mps 717 mmHg 88%
22:00 +25°C° 0 mm 2 mps 717 mmHg 89%
23:00 +25°C° 0 mm 2 mps 716 mmHg 90%
Show more